_id,NOM_ENS,CODI_ENS,DATA,HORA,TEMP_MAX,TEMP_MAX_DATA,TEMP_MIN,TEMP_MIN_DATA,TEMP_MITJ,MAX_HIVEL_VENT,MAX_HIVEL_VENT_DATA,DIR_MAX_HIVEL_VENT,PLUJA_AVUI,PLUJA_AHIR,PLUJA_MES,PLUJA_ANY,DIES_NO_PLUJA,LATITUD,LONGITUD
1,Ajuntament de Valls,4316130008,2023-12-19T00:00:00,2023-12-19T16:05:00,15.4,2023-12-19T12:50:00,10.9,2023-12-19T10:05:00,13.15,38.0,2023-12-19T13:10:00,NW,0.0,0.0,1.5,193.5,26.0,41.2842776,1.2476852
2,Ajuntament de Valls,4316130008,2024-01-04T00:00:00,2024-01-04T23:55:00,17.0,2024-01-04T12:55:00,10.4,2024-01-04T22:05:00,13.7,22.8,2024-01-04T14:40:00,S,0.0,0.0,0.0,0.0,27.0,41.2842776,1.2476852
3,Ajuntament de Valls,4316130008,2024-01-05T00:00:00,2024-01-05T23:55:00,12.6,2024-01-05T12:35:00,8.1,2024-01-05T19:50:00,10.35,60.8,2024-01-05T19:30:00,NW,0.0,0.0,0.0,0.0,28.0,41.2842776,1.2476852
4,Ajuntament de Valls,4316130008,2024-01-06T00:00:00,2024-01-06T16:30:00,11.5,2024-01-06T14:40:00,7.6,2024-01-06T00:45:00,9.55,58.9,2024-01-06T13:55:00,NW,0.0,0.0,0.0,0.0,31.0,41.2842776,1.2476852
5,Ajuntament de Valls,4316130008,2024-01-09T00:00:00,2024-01-09T15:10:00,12.6,2024-01-09T15:00:00,12.6,2024-01-09T15:00:00,12.6,9.5,2024-01-09T15:10:00,SW,0.0,0.0,0.0,0.0,33.0,41.2842776,1.2476852
6,Ajuntament de Valls,4316130008,2024-01-11T00:00:00,2024-01-11T16:05:00,8.7,2024-01-11T16:00:00,7.6,2024-01-11T14:35:00,8.149999999999999,28.5,2024-01-11T14:30:00,NW,3.6,0.0,0.0,0.0,34.0,41.2842776,1.2476852
7,Ajuntament de Valls,4316130008,2024-01-12T00:00:00,2024-01-12T15:15:00,9.8,2024-01-12T12:50:00,9.2,2024-01-12T12:05:00,9.5,36.1,2024-01-12T14:20:00,NW,0.0,3.6,3.6,3.6,1.0,41.2842776,1.2476852
8,Ajuntament de Valls,4316130008,2024-01-13T00:00:00,2024-01-13T16:00:00,14.8,2024-01-13T13:55:00,8.1,2024-01-13T10:45:00,11.45,24.7,2024-01-13T10:45:00,NW,0.0,0.0,3.6,3.6,2.0,41.2842776,1.2476852
9,Ajuntament de Valls,4316130008,2024-01-14T00:00:00,2024-01-14T23:50:00,16.5,2024-01-14T14:35:00,12.0,2024-01-14T09:45:00,14.25,43.7,2024-01-14T16:10:00,NE,0.0,0.0,3.6,3.6,3.0,41.2842776,1.2476852
10,Ajuntament de Valls,4316130008,2024-01-15T00:00:00,2024-01-15T23:55:00,17.0,2024-01-15T12:30:00,9.2,2024-01-15T08:15:00,13.1,45.6,2024-01-15T01:30:00,NW,0.0,0.0,3.6,3.6,4.0,41.2842776,1.2476852
11,Ajuntament de Valls,4316130008,2024-01-16T00:00:00,2024-01-16T23:55:00,18.1,2024-01-16T15:25:00,9.2,2024-01-16T04:55:00,13.65,47.5,2024-01-16T10:50:00,NW,0.0,0.0,3.6,3.6,5.0,41.2842776,1.2476852
12,Ajuntament de Valls,4316130008,2024-01-17T00:00:00,2024-01-17T23:50:00,18.7,2024-01-17T16:05:00,9.8,2024-01-17T06:25:00,14.25,64.6,2024-01-17T23:45:00,W,1.3,0.0,3.6,3.6,6.0,41.2842776,1.2476852
13,Ajuntament de Valls,4316130008,2024-01-18T00:00:00,2024-01-18T23:55:00,18.7,2024-01-18T12:50:00,12.0,2024-01-18T08:50:00,15.35,79.8,2024-01-18T00:45:00,NW,0.0,1.3,4.8,4.8,1.0,41.2842776,1.2476852
14,Ajuntament de Valls,4316130008,2024-01-19T00:00:00,2024-01-19T23:55:00,14.8,2024-01-19T00:20:00,6.5,2024-01-19T23:35:00,10.65,36.1,2024-01-19T00:45:00,W,20.3,0.0,4.8,4.8,2.0,41.2842776,1.2476852
15,Ajuntament de Valls,4316130008,2024-01-20T00:00:00,2024-01-20T23:30:00,10.9,2024-01-20T16:05:00,4.2,2024-01-20T08:15:00,7.550000000000001,34.2,2024-01-20T06:45:00,N,0.3,20.3,25.1,25.1,1.0,41.2842776,1.2476852
16,Ajuntament de Valls,4316130008,2024-01-21T00:00:00,2024-01-21T23:55:00,12.6,2024-01-21T13:00:00,3.7,2024-01-21T06:55:00,8.15,19.0,2024-01-21T13:50:00,N,0.0,0.3,25.4,25.4,1.0,41.2842776,1.2476852
17,Ajuntament de Valls,4316130008,2024-01-22T00:00:00,2024-01-22T23:50:00,18.1,2024-01-22T14:40:00,4.2,2024-01-22T04:35:00,11.15,22.8,2024-01-22T15:30:00,SE,0.0,0.0,25.4,25.4,2.0,41.2842776,1.2476852
18,Ajuntament de Valls,4316130008,2024-01-23T00:00:00,2024-01-23T23:55:00,18.1,2024-01-23T16:10:00,8.7,2024-01-23T06:35:00,13.4,19.0,2024-01-23T01:00:00,N,0.0,0.0,25.4,25.4,3.0,41.2842776,1.2476852
19,Ajuntament de Valls,4316130008,2024-01-24T00:00:00,2024-01-24T23:50:00,22.0,2024-01-24T16:20:00,8.7,2024-01-24T00:15:00,15.35,36.1,2024-01-24T11:35:00,NW,0.0,0.0,25.4,25.4,4.0,41.2842776,1.2476852
20,Ajuntament de Valls,4316130008,2024-01-25T00:00:00,2024-01-25T23:55:00,22.6,2024-01-25T13:50:00,9.2,2024-01-25T00:45:00,15.9,34.2,2024-01-25T10:10:00,NW,0.0,0.0,25.4,25.4,5.0,41.2842776,1.2476852
21,Ajuntament de Valls,4316130008,2024-01-26T00:00:00,2024-01-26T21:40:00,20.9,2024-01-26T14:40:00,11.5,2024-01-26T07:35:00,16.2,24.7,2024-01-26T11:55:00,E,0.0,0.0,25.4,25.4,6.0,41.2842776,1.2476852
22,Ajuntament de Valls,4316130008,2024-01-27T00:00:00,2024-01-27T18:30:00,20.4,2024-01-27T13:40:00,10.4,2024-01-27T09:35:00,15.399999999999999,24.7,2024-01-27T14:55:00,S,0.0,0.0,25.4,25.4,7.0,41.2842776,1.2476852
23,Ajuntament de Valls,4316130008,2024-01-28T00:00:00,2024-01-28T23:50:00,16.5,2024-01-28T14:40:00,10.4,2024-01-28T09:50:00,13.45,22.8,2024-01-28T14:50:00,SE,0.0,0.0,25.4,25.4,8.0,41.2842776,1.2476852
24,Ajuntament de Valls,4316130008,2024-01-29T00:00:00,2024-01-29T23:55:00,14.8,2024-01-29T13:00:00,8.7,2024-01-29T03:55:00,11.75,22.8,2024-01-29T05:00:00,NE,0.0,0.0,25.4,25.4,9.0,41.2842776,1.2476852
25,Ajuntament de Valls,4316130008,2024-01-30T00:00:00,2024-01-30T23:50:00,17.6,2024-01-30T13:55:00,10.4,2024-01-30T03:15:00,14.0,22.8,2024-01-30T16:40:00,S,0.0,0.0,25.4,25.4,10.0,41.2842776,1.2476852
26,Ajuntament de Valls,4316130008,2024-01-31T00:00:00,2024-01-31T23:50:00,17.0,2024-01-31T15:00:00,5.9,2024-01-31T05:30:00,11.45,24.7,2024-01-31T15:40:00,S,0.0,0.0,25.4,25.4,11.0,41.2842776,1.2476852
27,Ajuntament de Valls,4316130008,2024-02-01T00:00:00,2024-02-01T23:50:00,19.2,2024-02-01T13:50:00,7.6,2024-02-01T02:50:00,13.399999999999999,24.7,2024-02-01T07:05:00,NW,0.0,0.0,0.0,25.4,12.0,41.2842776,1.2476852
28,Ajuntament de Valls,4316130008,2024-02-02T00:00:00,2024-02-02T23:55:00,17.0,2024-02-02T13:40:00,8.1,2024-02-02T08:05:00,12.55,32.3,2024-02-02T07:55:00,W,0.0,0.0,0.0,25.4,13.0,41.2842776,1.2476852
29,Ajuntament de Valls,4316130008,2024-02-03T00:00:00,2024-02-03T23:50:00,19.2,2024-02-03T14:20:00,8.1,2024-02-03T02:55:00,13.649999999999999,26.6,2024-02-03T08:35:00,NW,0.0,0.0,0.0,25.4,14.0,41.2842776,1.2476852
30,Ajuntament de Valls,4316130008,2024-02-04T00:00:00,2024-02-04T21:00:00,20.9,2024-02-04T14:40:00,8.7,2024-02-04T02:10:00,14.799999999999999,24.7,2024-02-04T11:25:00,W,0.0,0.0,0.0,25.4,15.0,41.2842776,1.2476852
31,Ajuntament de Valls,4316130008,2024-02-05T00:00:00,2024-02-05T19:20:00,21.5,2024-02-05T13:55:00,11.5,2024-02-05T09:50:00,16.5,30.4,2024-02-05T11:05:00,W,0.0,0.0,0.0,25.4,16.0,41.2842776,1.2476852
32,Ajuntament de Valls,4316130008,2024-02-06T00:00:00,2024-02-06T21:35:00,17.0,2024-02-06T14:50:00,10.4,2024-02-06T09:20:00,13.7,26.6,2024-02-06T15:45:00,NW,0.0,0.0,0.0,25.4,17.0,41.2842776,1.2476852
33,Ajuntament de Valls,4316130008,2024-02-07T00:00:00,2024-02-07T23:50:00,19.8,2024-02-07T14:00:00,10.9,2024-02-07T09:40:00,15.350000000000001,41.8,2024-02-07T15:30:00,N,0.0,0.0,0.0,25.4,18.0,41.2842776,1.2476852
34,Ajuntament de Valls,4316130008,2024-02-08T00:00:00,2024-02-08T22:35:00,18.7,2024-02-08T12:30:00,12.0,2024-02-08T09:05:00,15.35,32.3,2024-02-08T06:20:00,W,0.0,0.0,0.0,25.4,19.0,41.2842776,1.2476852
35,Ajuntament de Valls,4316130008,2024-02-09T00:00:00,2024-02-09T23:50:00,17.0,2024-02-09T16:15:00,9.8,2024-02-09T09:05:00,13.4,28.5,2024-02-09T14:15:00,S,6.6,0.0,0.0,25.4,20.0,41.2842776,1.2476852
36,Ajuntament de Valls,4316130008,2024-02-10T00:00:00,2024-02-10T23:50:00,14.2,2024-02-10T16:30:00,9.2,2024-02-10T06:05:00,11.7,79.8,2024-02-10T23:20:00,NW,0.3,6.6,6.6,32.0,1.0,41.2842776,1.2476852
37,Ajuntament de Valls,4316130008,2024-02-11T00:00:00,2024-02-11T19:55:00,12.6,2024-02-11T14:30:00,9.2,2024-02-11T07:45:00,10.899999999999999,91.2,2024-02-11T08:40:00,W,0.0,0.3,6.9,32.3,1.0,41.2842776,1.2476852
38,Ajuntament de Valls,4316130008,2024-02-12T00:00:00,2024-02-12T23:50:00,18.1,2024-02-12T12:20:00,9.2,2024-02-12T09:35:00,13.65,95.0,2024-02-12T16:40:00,NW,0.0,0.0,6.9,32.3,2.0,41.2842776,1.2476852
39,Ajuntament de Valls,4316130008,2024-02-13T00:00:00,2024-02-13T21:20:00,18.1,2024-02-13T14:15:00,9.2,2024-02-13T05:00:00,13.65,24.7,2024-02-13T02:15:00,NE,0.0,0.0,6.9,32.3,3.0,41.2842776,1.2476852
40,Ajuntament de Valls,4316130008,2024-02-14T00:00:00,2024-02-14T23:50:00,21.5,2024-02-14T12:40:00,9.2,2024-02-14T05:40:00,15.35,22.8,2024-02-14T09:30:00,W,0.0,0.0,6.9,32.3,4.0,41.2842776,1.2476852
41,Ajuntament de Valls,4316130008,2024-02-15T00:00:00,2024-02-15T23:50:00,18.1,2024-02-15T13:05:00,9.8,2024-02-15T06:50:00,13.950000000000001,22.8,2024-02-15T12:00:00,SE,0.0,0.0,6.9,32.3,5.0,41.2842776,1.2476852
42,Ajuntament de Valls,4316130008,2024-02-16T00:00:00,2024-02-16T23:55:00,13.7,2024-02-16T13:00:00,10.4,2024-02-16T02:00:00,12.05,38.0,2024-02-16T15:50:00,NW,0.0,0.0,6.9,32.3,6.0,41.2842776,1.2476852
43,Ajuntament de Valls,4316130008,2024-02-17T00:00:00,2024-02-17T23:50:00,16.5,2024-02-17T13:20:00,10.9,2024-02-17T03:20:00,13.7,53.2,2024-02-17T10:35:00,NW,0.5,0.0,6.9,32.3,7.0,41.2842776,1.2476852
44,Ajuntament de Valls,4316130008,2024-02-18T00:00:00,2024-02-18T23:50:00,18.7,2024-02-18T12:25:00,9.2,2024-02-18T06:00:00,13.95,26.6,2024-02-18T10:20:00,NW,0.0,0.5,7.4,32.8,1.0,41.2842776,1.2476852
45,Ajuntament de Valls,4316130008,2024-02-19T00:00:00,2024-02-19T19:55:00,22.0,2024-02-19T13:25:00,10.4,2024-02-19T00:10:00,16.2,20.9,2024-02-19T10:55:00,W,0.0,0.0,7.4,32.8,2.0,41.2842776,1.2476852
46,Ajuntament de Valls,4316130008,2024-02-20T00:00:00,2024-02-20T19:35:00,19.2,2024-02-20T13:40:00,11.5,2024-02-20T09:55:00,15.35,30.4,2024-02-20T03:00:00,NW,0.0,0.0,7.4,32.8,3.0,41.2842776,1.2476852
47,Ajuntament de Valls,4316130008,2024-02-21T00:00:00,2024-02-21T23:50:00,16.5,2024-02-21T12:45:00,10.4,2024-02-21T09:50:00,13.45,24.7,2024-02-21T13:00:00,SW,0.0,0.0,7.4,32.8,4.0,41.2842776,1.2476852
48,Ajuntament de Valls,4316130008,2024-02-22T00:00:00,2024-02-22T23:50:00,18.7,2024-02-22T13:10:00,8.7,2024-02-22T06:30:00,13.7,45.6,2024-02-22T23:10:00,W,0.0,0.0,7.4,32.8,5.0,41.2842776,1.2476852
49,Ajuntament de Valls,4316130008,2024-02-23T00:00:00,2024-02-23T17:30:00,13.7,2024-02-23T00:05:00,8.1,2024-02-23T05:00:00,10.899999999999999,58.9,2024-02-23T13:00:00,NW,0.0,0.0,7.4,32.8,6.0,41.2842776,1.2476852
50,Ajuntament de Valls,4316130008,2024-02-24T00:00:00,2024-02-24T18:10:00,12.6,2024-02-24T16:10:00,9.2,2024-02-24T11:00:00,10.899999999999999,47.5,2024-02-24T16:15:00,NW,0.0,0.0,7.4,32.8,7.0,41.2842776,1.2476852
51,Ajuntament de Valls,4316130008,2024-02-25T00:00:00,2024-02-25T23:55:00,13.7,2024-02-25T15:00:00,10.4,2024-02-25T10:00:00,12.05,24.7,2024-02-25T13:10:00,SW,0.0,0.0,7.4,32.8,8.0,41.2842776,1.2476852
52,Ajuntament de Valls,4316130008,2024-02-26T00:00:00,2024-02-26T18:20:00,15.4,2024-02-26T14:45:00,10.9,2024-02-26T00:35:00,13.15,70.3,2024-02-26T16:50:00,NW,0.0,0.0,7.4,32.8,9.0,41.2842776,1.2476852
53,Ajuntament de Valls,4316130008,2024-02-27T00:00:00,2024-02-27T18:40:00,17.0,2024-02-27T16:05:00,10.4,2024-02-27T09:45:00,13.7,64.6,2024-02-27T10:40:00,N,0.0,0.0,7.4,32.8,10.0,41.2842776,1.2476852
54,Ajuntament de Valls,4316130008,2024-02-28T00:00:00,2024-02-28T18:35:00,18.1,2024-02-28T16:25:00,11.5,2024-02-28T10:15:00,14.8,41.8,2024-02-28T13:55:00,NW,0.0,0.0,7.4,32.8,11.0,41.2842776,1.2476852
55,Ajuntament de Valls,4316130008,2024-02-29T00:00:00,2024-02-29T19:35:00,19.2,2024-02-29T16:20:00,12.0,2024-02-29T10:10:00,15.6,34.2,2024-02-29T13:15:00,NW,0.0,0.0,7.4,32.8,12.0,41.2842776,1.2476852
56,Ajuntament de Valls,4316130008,2024-03-01T00:00:00,2024-03-01T23:25:00,16.5,2024-03-01T16:35:00,7.0,2024-03-01T02:35:00,11.75,70.3,2024-03-01T13:20:00,NW,1.0,0.0,0.0,32.8,13.0,41.2842776,1.2476852
57,Ajuntament de Valls,4316130008,2024-03-02T00:00:00,2024-03-02T23:55:00,16.5,2024-03-02T11:45:00,10.9,2024-03-02T23:50:00,13.7,34.2,2024-03-02T13:45:00,SE,0.0,1.0,1.0,33.8,1.0,41.2842776,1.2476852
58,Ajuntament de Valls,4316130008,2024-03-03T00:00:00,2024-03-03T18:30:00,12.0,2024-03-03T15:00:00,4.2,2024-03-03T05:50:00,8.1,81.7,2024-03-03T07:10:00,NW,0.8,0.0,1.0,33.8,2.0,41.2842776,1.2476852
59,Ajuntament de Valls,4316130008,2024-03-04T00:00:00,2024-03-04T23:55:00,14.2,2024-03-04T15:40:00,8.7,2024-03-04T09:35:00,11.45,49.4,2024-03-04T13:20:00,W,0.0,0.8,1.8,34.5,1.0,41.2842776,1.2476852
60,Ajuntament de Valls,4316130008,2024-03-05T00:00:00,2024-03-05T18:10:00,15.9,2024-03-05T15:10:00,8.1,2024-03-05T07:00:00,12.0,66.5,2024-03-05T10:25:00,NW,0.0,0.0,1.8,34.5,2.0,41.2842776,1.2476852
61,Ajuntament de Valls,4316130008,2024-03-06T00:00:00,2024-03-06T18:35:00,18.1,2024-03-06T14:00:00,10.9,2024-03-06T09:55:00,14.5,32.3,2024-03-06T16:20:00,SW,0.0,0.0,1.8,34.5,3.0,41.2842776,1.2476852
62,Ajuntament de Valls,4316130008,2024-03-07T00:00:00,2024-03-07T19:15:00,15.9,2024-03-07T12:25:00,10.9,2024-03-07T19:15:00,13.4,32.3,2024-03-07T15:55:00,W,0.0,0.0,1.8,34.5,4.0,41.2842776,1.2476852
63,Ajuntament de Valls,4316130008,2024-03-08T00:00:00,2024-03-08T23:55:00,15.9,2024-03-08T12:40:00,7.0,2024-03-08T06:40:00,11.45,41.8,2024-03-08T06:50:00,N,9.7,0.0,1.8,34.5,5.0,41.2842776,1.2476852
64,Ajuntament de Valls,4316130008,2024-03-09T00:00:00,2024-03-09T23:50:00,11.5,2024-03-09T09:55:00,7.0,2024-03-09T02:15:00,9.25,34.2,2024-03-09T09:55:00,S,13.7,9.7,11.4,44.2,1.0,41.2842776,1.2476852
65,Ajuntament de Valls,4316130008,2024-03-10T00:00:00,2024-03-10T23:55:00,15.9,2024-03-10T13:20:00,4.8,2024-03-10T05:25:00,10.35,32.3,2024-03-10T14:50:00,W,0.0,13.7,25.1,57.9,1.0,41.2842776,1.2476852
66,Ajuntament de Valls,4316130008,2024-03-11T00:00:00,2024-03-11T23:55:00,15.4,2024-03-11T14:15:00,9.8,2024-03-11T00:55:00,12.600000000000001,85.5,2024-03-11T17:05:00,NW,0.0,0.0,25.1,57.9,2.0,41.2842776,1.2476852
67,Ajuntament de Valls,4316130008,2024-03-12T00:00:00,2024-03-12T23:45:00,19.2,2024-03-12T16:10:00,8.1,2024-03-12T05:45:00,13.649999999999999,53.2,2024-03-12T00:05:00,NW,0.0,0.0,25.1,57.9,3.0,41.2842776,1.2476852
68,Ajuntament de Valls,4316130008,2024-03-13T00:00:00,2024-03-13T23:55:00,17.6,2024-03-13T12:50:00,7.0,2024-03-13T08:25:00,12.3,30.4,2024-03-13T15:00:00,S,0.0,0.0,25.1,57.9,4.0,41.2842776,1.2476852
69,Ajuntament de Valls,4316130008,2024-03-14T00:00:00,2024-03-14T23:55:00,18.1,2024-03-14T14:15:00,6.5,2024-03-14T08:05:00,12.3,24.7,2024-03-14T12:50:00,S,0.0,0.0,25.1,57.9,5.0,41.2842776,1.2476852
70,Ajuntament de Valls,4316130008,2024-03-15T00:00:00,2024-03-15T23:55:00,20.4,2024-03-15T14:10:00,8.7,2024-03-15T06:55:00,14.549999999999999,32.3,2024-03-15T10:05:00,N,0.0,0.0,25.1,57.9,6.0,41.2842776,1.2476852
71,Ajuntament de Valls,4316130008,2024-03-16T00:00:00,2024-03-16T23:50:00,21.5,2024-03-16T14:20:00,9.2,2024-03-16T04:40:00,15.35,28.5,2024-03-16T13:00:00,S,0.0,0.0,25.1,57.9,7.0,41.2842776,1.2476852
72,Ajuntament de Valls,4316130008,2024-03-17T00:00:00,2024-03-17T23:55:00,22.0,2024-03-17T12:15:00,10.4,2024-03-17T07:10:00,16.2,24.7,2024-03-17T13:15:00,SE,0.0,0.0,25.1,57.9,8.0,41.2842776,1.2476852
73,Ajuntament de Valls,4316130008,2024-03-18T00:00:00,2024-03-18T23:55:00,22.6,2024-03-18T14:50:00,8.7,2024-03-18T06:20:00,15.65,26.6,2024-03-18T12:10:00,S,0.0,0.0,25.1,57.9,9.0,41.2842776,1.2476852
74,Ajuntament de Valls,4316130008,2024-03-19T00:00:00,2024-03-19T23:55:00,23.7,2024-03-19T15:05:00,10.9,2024-03-19T04:55:00,17.3,30.4,2024-03-19T16:00:00,SE,0.0,0.0,25.1,57.9,10.0,41.2842776,1.2476852
75,Ajuntament de Valls,4316130008,2024-03-20T00:00:00,2024-03-20T23:50:00,22.0,2024-03-20T13:35:00,10.4,2024-03-20T06:10:00,16.2,28.5,2024-03-20T15:15:00,S,0.0,0.0,25.1,57.9,11.0,41.2842776,1.2476852
76,Ajuntament de Valls,4316130008,2024-03-21T00:00:00,2024-03-21T23:50:00,21.5,2024-03-21T15:20:00,10.4,2024-03-21T05:25:00,15.95,24.7,2024-03-21T07:25:00,NW,0.0,0.0,25.1,57.9,12.0,41.2842776,1.2476852
77,Ajuntament de Valls,4316130008,2024-03-22T00:00:00,2024-03-22T21:30:00,25.4,2024-03-22T11:55:00,12.0,2024-03-22T03:30:00,18.7,30.4,2024-03-22T14:05:00,S,0.0,0.0,25.1,57.9,13.0,41.2842776,1.2476852
78,Ajuntament de Valls,4316130008,2024-03-23T00:00:00,2024-03-23T23:55:00,24.2,2024-03-23T13:55:00,13.1,2024-03-23T06:50:00,18.65,36.1,2024-03-23T10:30:00,NW,0.0,0.0,25.1,57.9,14.0,41.2842776,1.2476852
79,Ajuntament de Valls,4316130008,2024-03-24T00:00:00,2024-03-24T23:50:00,18.1,2024-03-24T12:00:00,9.2,2024-03-24T06:10:00,13.65,30.4,2024-03-24T13:35:00,SE,0.0,0.0,25.1,57.9,15.0,41.2842776,1.2476852
80,Ajuntament de Valls,4316130008,2024-03-25T00:00:00,2024-03-25T23:55:00,12.0,2024-03-25T00:05:00,10.4,2024-03-25T18:20:00,11.2,22.8,2024-03-25T01:30:00,S,2.8,0.0,25.1,57.9,16.0,41.2842776,1.2476852
81,Ajuntament de Valls,4316130008,2024-03-26T00:00:00,2024-03-26T23:55:00,14.2,2024-03-26T15:30:00,7.0,2024-03-26T23:35:00,10.6,53.2,2024-03-26T12:25:00,NW,12.4,2.8,27.9,60.7,1.0,41.2842776,1.2476852
82,Ajuntament de Valls,4316130008,2024-03-27T00:00:00,2024-03-27T23:50:00,16.5,2024-03-27T16:35:00,4.8,2024-03-27T01:40:00,10.65,45.6,2024-03-27T09:30:00,NW,0.3,12.4,40.4,73.2,1.0,41.2842776,1.2476852
83,Ajuntament de Valls,4316130008,2024-03-28T00:00:00,2024-03-28T23:55:00,21.5,2024-03-28T14:05:00,10.4,2024-03-28T02:10:00,15.95,45.6,2024-03-28T15:10:00,S,0.0,0.3,40.6,73.4,1.0,41.2842776,1.2476852
84,Ajuntament de Valls,4316130008,2024-03-29T00:00:00,2024-03-29T23:50:00,20.4,2024-03-29T13:35:00,12.0,2024-03-29T06:35:00,16.2,30.4,2024-03-29T15:25:00,S,0.0,0.0,40.6,73.4,2.0,41.2842776,1.2476852
85,Ajuntament de Valls,4316130008,2024-03-30T00:00:00,2024-03-30T23:50:00,17.0,2024-03-30T15:15:00,9.2,2024-03-30T06:25:00,13.1,38.0,2024-03-30T05:50:00,NW,11.7,0.0,40.6,73.4,3.0,41.2842776,1.2476852
86,Ajuntament de Valls,4316130008,2024-03-31T00:00:00,2024-03-31T23:55:00,15.9,2024-03-31T15:05:00,9.2,2024-03-31T06:50:00,12.55,32.3,2024-03-31T00:40:00,S,3.8,12.7,53.3,86.1,1.0,41.2842776,1.2476852
87,Ajuntament de Valls,4316130008,2024-04-01T00:00:00,2024-04-01T23:55:00,17.6,2024-04-01T13:30:00,7.6,2024-04-01T03:40:00,12.600000000000001,47.5,2024-04-01T14:05:00,NW,0.0,3.8,0.0,89.9,1.0,41.2842776,1.2476852
88,Ajuntament de Valls,4316130008,2024-04-02T00:00:00,2024-04-02T23:55:00,19.2,2024-04-02T13:35:00,10.4,2024-04-02T04:20:00,14.8,38.0,2024-04-02T08:00:00,N,0.0,0.0,0.0,89.9,2.0,41.2842776,1.2476852
89,Ajuntament de Valls,4316130008,2024-04-03T00:00:00,2024-04-03T23:55:00,23.7,2024-04-03T15:55:00,7.6,2024-04-03T04:25:00,15.649999999999999,32.3,2024-04-03T12:20:00,W,0.0,0.0,0.0,89.9,3.0,41.2842776,1.2476852
90,Ajuntament de Valls,4316130008,2024-04-04T00:00:00,2024-04-04T23:55:00,23.1,2024-04-04T14:00:00,9.8,2024-04-04T06:35:00,16.450000000000003,30.4,2024-04-04T15:05:00,SW,0.0,0.0,0.0,89.9,4.0,41.2842776,1.2476852
91,Ajuntament de Valls,4316130008,2024-04-05T00:00:00,2024-04-05T23:50:00,20.9,2024-04-05T12:20:00,10.4,2024-04-05T06:25:00,15.649999999999999,26.6,2024-04-05T14:05:00,S,0.0,0.0,0.0,89.9,5.0,41.2842776,1.2476852
92,Ajuntament de Valls,4316130008,2024-04-06T00:00:00,2024-04-06T23:55:00,23.7,2024-04-06T13:45:00,12.6,2024-04-06T08:50:00,18.15,28.5,2024-04-06T15:00:00,S,0.0,0.0,0.0,89.9,6.0,41.2842776,1.2476852
93,Ajuntament de Valls,4316130008,2024-04-07T00:00:00,2024-04-07T23:55:00,23.1,2024-04-07T14:45:00,14.2,2024-04-07T00:50:00,18.65,20.9,2024-04-07T15:15:00,S,0.0,0.0,0.0,89.9,7.0,41.2842776,1.2476852
94,Ajuntament de Valls,4316130008,2024-04-08T00:00:00,2024-04-08T23:55:00,23.7,2024-04-08T12:55:00,13.7,2024-04-08T03:10:00,18.7,87.4,2024-04-08T23:55:00,N,0.0,0.0,0.0,89.9,8.0,41.2842776,1.2476852
95,Ajuntament de Valls,4316130008,2024-04-09T00:00:00,2024-04-09T23:20:00,18.7,2024-04-09T15:55:00,10.4,2024-04-09T06:45:00,14.55,89.3,2024-04-09T00:30:00,NW,0.0,0.0,0.0,89.9,9.0,41.2842776,1.2476852
96,Ajuntament de Valls,4316130008,2024-04-10T00:00:00,2024-04-10T20:45:00,22.0,2024-04-10T16:40:00,11.5,2024-04-10T09:50:00,16.75,38.0,2024-04-10T10:30:00,NW,0.0,0.0,0.0,89.9,10.0,41.2842776,1.2476852
97,Ajuntament de Valls,4316130008,2024-04-11T00:00:00,2024-04-11T23:40:00,22.0,2024-04-11T13:20:00,11.5,2024-04-11T09:15:00,16.75,32.3,2024-04-11T14:05:00,SE,0.0,0.0,0.0,89.9,11.0,41.2842776,1.2476852
98,Ajuntament de Valls,4316130008,2024-04-12T00:00:00,2024-04-12T22:50:00,25.4,2024-04-12T15:15:00,11.5,2024-04-12T08:35:00,18.45,30.4,2024-04-12T15:55:00,SE,0.0,0.0,0.0,89.9,12.0,41.2842776,1.2476852
99,Ajuntament de Valls,4316130008,2024-04-13T00:00:00,2024-04-13T21:15:00,28.1,2024-04-13T12:10:00,14.8,2024-04-13T08:50:00,21.450000000000003,30.4,2024-04-13T13:00:00,S,0.0,0.0,0.0,89.9,13.0,41.2842776,1.2476852
100,Ajuntament de Valls,4316130008,2024-04-14T00:00:00,2024-04-14T20:50:00,27.0,2024-04-14T15:05:00,16.5,2024-04-14T09:10:00,21.75,34.2,2024-04-14T18:05:00,S,0.0,0.0,0.0,89.9,14.0,41.2842776,1.2476852
101,Ajuntament de Valls,4316130008,2024-04-15T00:00:00,2024-04-15T21:30:00,27.0,2024-04-15T15:35:00,17.6,2024-04-15T09:40:00,22.3,26.6,2024-04-15T12:55:00,SE,0.0,0.0,0.0,89.9,15.0,41.2842776,1.2476852
102,Ajuntament de Valls,4316130008,2024-04-16T00:00:00,2024-04-16T20:45:00,24.8,2024-04-16T16:25:00,13.7,2024-04-16T09:20:00,19.25,38.0,2024-04-16T14:25:00,NW,0.0,0.0,0.0,89.9,16.0,41.2842776,1.2476852
103,Ajuntament de Valls,4316130008,2024-04-17T00:00:00,2024-04-17T23:55:00,19.8,2024-04-17T14:10:00,12.0,2024-04-17T23:55:00,15.9,32.3,2024-04-17T14:55:00,S,0.0,0.0,0.0,89.9,17.0,41.2842776,1.2476852
104,Ajuntament de Valls,4316130008,2024-04-18T00:00:00,2024-04-18T23:50:00,21.5,2024-04-18T17:10:00,9.8,2024-04-18T08:30:00,15.65,43.7,2024-04-18T17:20:00,W,0.0,0.0,0.0,89.9,18.0,41.2842776,1.2476852
105,Ajuntament de Valls,4316130008,2024-04-19T00:00:00,2024-04-19T23:55:00,18.1,2024-04-19T11:40:00,10.4,2024-04-19T08:55:00,14.25,39.9,2024-04-19T16:05:00,SW,0.0,0.0,0.0,89.9,19.0,41.2842776,1.2476852
106,Ajuntament de Valls,4316130008,2024-04-20T00:00:00,2024-04-20T23:40:00,20.9,2024-04-20T12:40:00,9.8,2024-04-20T08:40:00,15.35,30.4,2024-04-20T13:35:00,S,0.0,0.0,0.0,89.9,20.0,41.2842776,1.2476852
107,Ajuntament de Valls,4316130008,2024-04-21T00:00:00,2024-04-21T23:55:00,17.6,2024-04-21T13:05:00,12.0,2024-04-21T00:45:00,14.8,34.2,2024-04-21T17:25:00,SE,0.0,0.0,0.0,89.9,21.0,41.2842776,1.2476852
108,Ajuntament de Valls,4316130008,2024-04-22T00:00:00,2024-04-22T23:55:00,15.9,2024-04-22T16:00:00,8.7,2024-04-22T23:55:00,12.3,38.0,2024-04-22T17:40:00,S,0.0,0.0,0.0,89.9,22.0,41.2842776,1.2476852
109,Ajuntament de Valls,4316130008,2024-04-23T00:00:00,2024-04-23T21:20:00,15.9,2024-04-23T18:35:00,5.4,2024-04-23T05:35:00,10.65,47.5,2024-04-23T18:35:00,NW,0.0,0.0,0.0,89.9,23.0,41.2842776,1.2476852
110,Ajuntament de Valls,4316130008,2024-04-24T00:00:00,2024-04-24T22:20:00,20.4,2024-04-24T17:20:00,8.7,2024-04-24T08:55:00,14.549999999999999,43.7,2024-04-24T14:10:00,W,0.0,0.0,0.0,89.9,24.0,41.2842776,1.2476852
111,Ajuntament de Valls,4316130008,2024-04-25T00:00:00,2024-04-25T23:55:00,17.6,2024-04-25T13:25:00,11.5,2024-04-25T09:45:00,14.55,28.5,2024-04-25T14:05:00,SE,0.0,0.0,0.0,89.9,25.0,41.2842776,1.2476852
112,Ajuntament de Valls,4316130008,2024-04-26T00:00:00,2024-04-26T23:50:00,19.8,2024-04-26T16:05:00,8.1,2024-04-26T07:00:00,13.95,30.4,2024-04-26T12:40:00,SW,0.3,0.0,0.0,89.9,26.0,41.2842776,1.2476852
113,Ajuntament de Valls,4316130008,2024-04-27T00:00:00,2024-04-27T23:55:00,17.6,2024-04-27T14:10:00,13.7,2024-04-27T00:10:00,15.65,39.9,2024-04-27T14:45:00,SE,1.5,0.3,0.3,90.2,1.0,41.2842776,1.2476852
114,Ajuntament de Valls,4316130008,2024-04-28T00:00:00,2024-04-28T23:50:00,18.1,2024-04-28T15:20:00,12.6,2024-04-28T04:10:00,15.350000000000001,32.3,2024-04-28T11:45:00,S,1.5,1.5,1.8,91.7,1.0,41.2842776,1.2476852
115,Ajuntament de Valls,4316130008,2024-04-29T00:00:00,2024-04-29T23:55:00,13.7,2024-04-29T16:45:00,10.9,2024-04-29T07:30:00,12.3,30.4,2024-04-29T21:05:00,N,16.3,1.5,3.3,93.2,1.0,41.2842776,1.2476852
116,Ajuntament de Valls,4316130008,2024-04-30T00:00:00,2024-04-30T23:55:00,22.0,2024-04-30T16:40:00,11.5,2024-04-30T00:05:00,16.75,28.5,2024-04-30T19:25:00,SW,10.2,16.3,19.6,109.5,1.0,41.2842776,1.2476852
117,Ajuntament de Valls,4316130008,2024-05-01T00:00:00,2024-05-01T23:55:00,18.1,2024-05-01T09:50:00,9.8,2024-05-01T05:10:00,13.950000000000001,49.4,2024-05-01T15:25:00,NW,0.0,10.2,0.0,119.6,1.0,41.2842776,1.2476852